Regional Weather Roundup
Issued by NWS

Home | Current Version | Previous Version | Graphics & Text | Print | Product List | Glossary On
Versions: 1 2 3 4 5 6 7 8 9 10 11 12 13 14 15 16 17 18 19 20 21 22 23 24 25 26 27 28 29 30 31 32 33 34 35 36 37 38 39 40 41 42 43 44 45 46 47 48 49 50
000
ASUS45 KSLC 062010
RWRUT

UTAH REGIONAL WEATHER ROUNDUP
NATIONAL WEATHER SERVICE SALT LAKE CITY UT
100 PM MST FRI MAR 06 2015

UTZ001>011-023>025-062100-

NORTHERN UTAH

CITY           SKY/WX    TMP DP  RH WIND       PRES   REMARKS
BRIGHAM CITY   SUNNY     48  20  32 SW3       30.46F
HILL AFB       SUNNY     49  17  28 VRB2      30.44F
LOGAN          SUNNY     49  22  34 CALM      30.44F
OGDEN          SUNNY     50  24  36 VRB5      30.44F
PROVO AIRPORT  NOT AVBL
SALT LAKE CITY MOSUNNY   53  23  31 N5        30.43F
VERNAL         SUNNY     41  21  44 S5        30.43F
WENDOVER       SUNNY     46  21  36 E6        30.45F
HEBER CITY     SUNNY     43  23  45 CALM      30.42F
WEST JORDAN    SUNNY     52  25  35 CALM      30.44F

$$

UTZ012>022-026-027-062100-

SOUTHERN/CENTRAL UTAH

CITY           SKY/WX    TMP DP  RH WIND       PRES   REMARKS
BLANDING       SUNNY     46  25  44 CALM      30.46F
BRYCE CANYON   SUNNY     35  13  40 CALM      30.42F
CEDAR CITY     SUNNY     42  11  28 SE3       30.39F
DELTA          SUNNY     49  23  35 N6        30.43F
HANKSVILLE     SUNNY     50  21  32 N3        30.44F
MILFORD        SUNNY     50  24  36 NE13      30.40F
MOAB/CYNLANDS  SUNNY     49  20  31 CALM      30.40F
PRICE          SUNNY     44  18  35 CALM      30.41F
ST GEORGE      CLEAR     55  25  30 CALM      30.36F
KANAB          SUNNY     55  19  24 N12       30.40F

$$

REGIONAL REPORTS     COLORADO/ARIZONA

CITY           SKY/WX    TMP DP  RH WIND       PRES   REMARKS
CRAIG, CO        N/A     42  20  41 CALM      30.41F
GRAND JUNCTION SUNNY     47  17  30 CALM      30.40F
RIFLE          SUNNY     46  17  31 VRB5      30.40F
MONTROSE       SUNNY     45  16  31 CALM      30.42F
CORTEZ         SUNNY     49  20  31 VRB3      30.38F
PAGE, AZ       SUNNY     50  25  37 CALM      30.39F
GRAND CANYON     N/A    N/A N/A N/A MISG        N/A
KINGMAN        SUNNY     64  25  22 N13       30.25F
FLAGSTAFF      SUNNY     44  12  27 E20       30.35F

$$

REGIONAL REPORTS    NEVADA/IDAHO/WYOMING

CITY           SKY/WX    TMP DP  RH WIND       PRES   REMARKS
LAS VEGAS, NV  SUNNY     66  21  18 NE9       30.25F
ELY            SUNNY     48  22  35 N8        30.42F
ELKO           SUNNY     53  15  22 CALM      30.42F
POCATELLO, ID  SUNNY     51  21  30 W14       30.44F
BURLEY         SUNNY     55  18  23 SW8       30.41F
EVANSTON, WY   SUNNY     41  18  39 W10       30.42F
ROCK SPRINGS   SUNNY     39  18  42 W22       30.35F WCI  29
KEMMERER       SUNNY     41  18  38 W18G24    30.39F

$$


USA.gov is the U.S. government's official web portal to all federal, state and local government web resources and services.